West Lebanon, NH

6:20 AM EDT on August 26, 2016 (GMT -0400)
Lebanon Municipal

Weather History for KLEB - December, 2012

Change the Weather History Date:

Friday, December 28, 2012

  Actual Average Record
Temperature  
Mean Temperature 24 °F -  
Max Temperature 32 °F 29 °F 54 °F (1936)
Min Temperature 10 °F 11 °F -24 °F (1933)
Degree Days  
Heating Degree Days 42    
Moisture  
Dew Point 17 °F    
Average Humidity 74    
Maximum Humidity 89    
Minimum Humidity 64    
Precipitation  
Precipitation 0.00 in - - ()
Sea Level Pressure  
Sea Level Pressure 29.93 in    
Wind  
Wind Speed 6 mph (NW)    
Max Wind Speed 14 mph    
Max Gust Speed 21 mph    
Visibility 10 miles    
Events      
Averages and records for this station are not official NWS values.
T = Trace of Precipitation, MM = Missing Value Source: NWS Daily Summary

Daily Weather History Graph

Daily Weather History Graph

Search for Another Location

Airport or City:

Trip Planner

Search our weather history database for the weather conditions in past years. The results will help you decide how hot, cold, wet, or windy it might be!

Date:

Astronomy

Dec. 28, 2012 Rise Set
Actual Time 7:22 AM EST 4:20 PM EST
Civil Twilight 6:49 AM EST 4:52 PM EST
Nautical Twilight 6:13 AM EST 5:29 PM EST
Astronomical Twilight 5:38 AM EST 6:03 PM EST
Moon 4:56 PM EST (12/28) 7:12 AM EST (12/28)
Length of Visible Light 10h 03m
Length of Day
8h 57m
Full, 100% of the Moon is Illuminated
Dec 28
Full
Jan 4
Last Quarter
Jan 11
New
Jan 18
First Quarter
Jan 26
Full

Hourly Weather History & Observations

Time (EST) Temp. Windchill Dew Point Humidity Pressure Visibility Wind Dir Wind Speed Gust Speed Precip Events Conditions
12:53 AM 25.0 °F 15.5 °F 18.0 °F 75% 29.75 in 10.0 mi NNW 9.2 mph - N/A   Overcast
1:53 AM 25.0 °F 15.5 °F 18.0 °F 75% 29.78 in 10.0 mi NNW 9.2 mph - N/A   Overcast
2:12 AM 24.8 °F 16.9 °F 17.6 °F 74% 29.76 in 10.0 mi NNW 6.9 mph - N/A   Mostly Cloudy
2:49 AM 24.8 °F 16.1 °F 17.6 °F 74% 29.79 in 10.0 mi NNW 8.1 mph - N/A   Overcast
2:53 AM 25.0 °F 15.5 °F 16.0 °F 69% 29.82 in 10.0 mi NNW 9.2 mph - N/A   Overcast
3:53 AM 25.0 °F 16.3 °F 17.1 °F 72% 29.84 in 10.0 mi NNW 8.1 mph - N/A   Overcast
4:53 AM 24.1 °F 17.0 °F 17.1 °F 75% 29.86 in 10.0 mi NW 5.8 mph - N/A   Overcast
6:17 AM 24.8 °F 12.9 °F 15.8 °F 69% 29.86 in 10.0 mi NW 13.8 mph 20.7 mph N/A   Scattered Clouds
6:53 AM 24.1 °F 14.4 °F 15.1 °F 69% 29.91 in 10.0 mi NNW 9.2 mph 17.3 mph N/A   Clear
7:53 AM 24.1 °F 15.2 °F 17.1 °F 75% 29.94 in 10.0 mi NW 8.1 mph - N/A   Overcast
8:06 AM 24.8 °F 16.9 °F 17.6 °F 74% 29.90 in 10.0 mi NW 6.9 mph - N/A   Overcast
8:14 AM 24.8 °F 19.1 °F 17.6 °F 74% 29.91 in 10.0 mi NW 4.6 mph - N/A   Overcast
8:53 AM 25.0 °F 20.7 °F 18.0 °F 75% 29.96 in 10.0 mi NNW 3.5 mph - N/A   Overcast
9:07 AM 24.8 °F 19.1 °F 17.6 °F 74% 29.93 in 10.0 mi NW 4.6 mph - N/A   Overcast
9:14 AM 24.8 °F 19.1 °F 17.6 °F 74% 29.93 in 10.0 mi NW 4.6 mph - N/A   Overcast
9:53 AM 27.0 °F 21.6 °F 19.0 °F 72% 29.98 in 10.0 mi NW 4.6 mph - N/A   Overcast
10:33 AM 28.4 °F 22.2 °F 19.4 °F 69% 29.94 in 10.0 mi NW 5.8 mph - N/A   Overcast
10:53 AM 28.0 °F 20.0 °F 19.0 °F 69% 29.97 in 10.0 mi NNW 8.1 mph - N/A   Overcast
11:53 AM 28.9 °F 25.2 °F 19.9 °F 69% 29.97 in 10.0 mi NNW 3.5 mph - N/A   Overcast
12:53 PM 30.0 °F - 21.0 °F 69% 29.96 in 10.0 mi Calm Calm - N/A   Overcast
1:53 PM 30.9 °F 26.2 °F 21.0 °F 67% 29.96 in 10.0 mi NNW 4.6 mph - N/A   Overcast
2:53 PM 30.9 °F 23.5 °F 21.0 °F 67% 29.97 in 10.0 mi NW 8.1 mph - N/A   Overcast
3:53 PM 32.0 °F 28.7 °F 21.0 °F 64% 29.97 in 10.0 mi NW 3.5 mph - N/A   Overcast
4:40 PM 28.4 °F - 19.4 °F 69% 29.95 in 10.0 mi Calm Calm - N/A   Scattered Clouds
4:53 PM 30.0 °F 24.1 °F 19.9 °F 66% 29.99 in 10.0 mi NNW 5.8 mph - N/A   Mostly Cloudy
5:01 PM 28.4 °F 23.3 °F 19.4 °F 69% 29.96 in 10.0 mi NNW 4.6 mph - N/A   Scattered Clouds
5:53 PM 19.9 °F - 17.1 °F 89% 30.01 in 10.0 mi Calm Calm - N/A   Clear
6:53 PM 19.0 °F - 15.1 °F 85% 30.02 in 10.0 mi Calm Calm - N/A   Partly Cloudy
7:37 PM 17.6 °F - 14.0 °F 86% 29.98 in 10.0 mi Calm Calm - N/A   Mostly Cloudy
7:50 PM 17.6 °F - 14.0 °F 86% 29.98 in 10.0 mi Calm Calm - N/A   Scattered Clouds
7:53 PM 18.0 °F - 14.0 °F 84% 30.03 in 10.0 mi Calm Calm - N/A   Partly Cloudy
8:53 PM 15.1 °F - 10.9 °F 84% 30.04 in 10.0 mi Calm Calm - N/A   Scattered Clouds
9:53 PM 16.0 °F - 12.0 °F 84% 30.04 in 10.0 mi Calm Calm - N/A   Mostly Cloudy
11:53 PM 10.9 °F - 6.1 °F 81% 30.04 in 10.0 mi Calm Calm - N/A   Clear